EDT,Max TemperatureF,Mean TemperatureF,Min TemperatureF,Max Dew PointF,MeanDew PointF,Min DewpointF,Max Humidity, Mean Humidity, Min Humidity, Max Sea Level PressureIn, Mean Sea Level PressureIn, Min Sea Level PressureIn, Max VisibilityMiles, Mean VisibilityMiles, Min VisibilityMiles, Max Wind SpeedMPH, Mean Wind SpeedMPH, Max Gust SpeedMPH,PrecipitationIn, CloudCover, Events, WindDirDegrees
2013-10-1,82,66,51,63,56,52,100,86,39,30.09,30.04,29.99,10,10,6,10,1,,0.00,2,,291
2013-10-2,84,68,51,63,57,52,100,89,37,30.11,30.06,30.02,10,8,0,9,0,,0.00,0,,254
2013-10-3,82,68,53,68,60,54,100,92,48,30.13,30.09,30.06,10,8,1,7,0,,0.00,0,,153
2013-10-4,89,72,55,66,61,55,100,88,38,30.11,30.06,30.03,10,6,0,13,1,,0.00,3,Fog,306
2013-10-5,87,74,60,68,64,59,100,77,43,30.11,30.06,30.01,10,9,5,10,1,,0.00,1,Fog,144
2013-10-6,87,73,59,68,64,59,100,82,43,30.04,29.98,29.92,10,8,0,15,3,24,0.00,1,,162
2013-10-7,73,64,53,72,62,46,100,86,67,30.08,29.92,29.80,10,9,0,16,9,44,0.00,5,Rain,159
2013-10-8,68,56,44,54,49,45,100,81,46,30.29,30.21,30.09,10,10,10,12,3,16,0.00,0,,7
2013-10-9,62,56,51,55,51,48,100,83,63,30.33,30.28,30.22,10,10,5,15,7,17,0.00,3,Rain,7
2013-10-10,57,55,53,57,54,52,100,97,94,30.21,30.11,30.00,10,8,2,16,12,21,0.00,8,Rain,355
2013-10-11,62,60,57,63,58,55,100,98,94,30.00,29.97,29.95,10,8,2,14,11,20,0.00,8,Rain,351
2013-10-12,64,62,60,64,61,59,100,97,88,30.17,30.08,29.99,10,8,3,12,7,,0.00,8,,6
2013-10-13,60,60,59,61,60,59,100,99,94,30.33,30.25,30.16,10,7,2,9,6,,0.00,8,Rain,1
2013-10-14,69,60,51,59,55,52,100,92,56,30.34,30.29,30.24,10,10,5,8,3,,0.00,4,,15
2013-10-15,71,58,46,61,52,45,100,87,38,30.25,30.17,30.10,10,7,0,5,0,,0.00,4,,146
2013-10-16,71,65,59,64,61,59,100,93,73,30.17,30.01,29.93,10,10,7,8,2,,0.00,5,,171
2013-10-17,75,66,57,66,61,55,100,92,65,29.93,29.86,29.75,10,9,1,15,3,18,0.00,3,,210
2013-10-18,66,55,44,54,46,39,100,76,37,30.03,29.96,29.84,10,10,6,17,8,22,0.00,0,,317
2013-10-19,66,54,42,59,49,43,100,95,68,30.02,29.94,29.80,10,8,0,13,1,18,0.00,3,,191
2013-10-20,62,50,39,48,39,32,100,69,32,30.12,30.03,29.88,10,10,1,21,7,26,0.00,0,,320
2013-10-21,68,52,35,46,41,36,100,80,33,30.16,30.07,29.98,10,10,3,14,2,22,0.00,0,,172
2013-10-22,64,53,42,52,43,36,100,78,51,29.97,29.89,29.83,10,10,10,10,3,,0.00,3,,17
2013-10-23,59,52,44,45,38,34,100,68,39,29.93,29.81,29.67,10,10,9,14,6,20,0.00,5,,324
2013-10-24,53,44,35,36,32,25,100,70,38,30.16,30.04,29.93,10,10,10,16,6,24,0.00,2,,280
2013-10-25,55,42,28,34,30,27,100,78,38,30.34,30.26,30.16,10,10,10,20,3,23,0.00,0,,318
2013-10-26,55,40,26,34,28,25,100,66,31,30.33,30.15,29.96,10,10,10,16,3,23,0.00,2,,193
2013-10-27,60,46,33,41,37,32,100,82,36,30.16,30.05,29.98,10,10,10,8,2,16,0.00,2,,219
2013-10-28,64,48,32,45,38,30,100,85,40,30.29,30.22,30.16,10,10,6,6,1,,0.00,1,,4
2013-10-29,64,48,33,46,40,34,100,88,40,30.40,30.33,30.26,10,10,5,4,0,,0.00,1,,30
2013-10-30,66,55,44,57,49,43,100,96,68,30.33,30.25,30.16,10,9,1,9,1,,0.00,4,,166
2013-10-31,71,60,48,61,56,46,100,85,68,30.19,30.00,29.79,10,8,1,15,4,22,0.00,4,,176